Year,Month,Day,Hour,Minute,Value (Times are PST for temperature in C)
2021,04,11,00,00,5.30
2021,04,11,00,01,5.30
2021,04,11,00,02,5.30
2021,04,11,00,03,5.30
2021,04,11,00,04,5.30
2021,04,11,00,05,5.30
2021,04,11,00,06,5.30
2021,04,11,00,07,5.30
2021,04,11,00,08,5.30
2021,04,11,00,09,5.30
2021,04,11,00,10,5.30
2021,04,11,00,11,5.30
2021,04,11,00,12,5.30
2021,04,11,00,13,5.30
2021,04,11,00,14,5.30
2021,04,11,00,15,5.30
2021,04,11,00,16,5.20
2021,04,11,00,17,5.20
2021,04,11,00,18,5.20
2021,04,11,00,19,5.20
2021,04,11,00,20,5.20
2021,04,11,00,21,5.20
2021,04,11,00,22,5.20
2021,04,11,00,23,5.20
2021,04,11,00,24,5.20
2021,04,11,00,25,5.20
2021,04,11,00,26,5.20
2021,04,11,00,27,5.10
2021,04,11,00,28,5.10
2021,04,11,00,29,5.10
2021,04,11,00,30,5.10
2021,04,11,00,31,5.10
2021,04,11,00,32,5.10
2021,04,11,00,33,5.00
2021,04,11,00,34,5.00
2021,04,11,00,35,4.90
2021,04,11,00,36,4.90
2021,04,11,00,37,4.90
2021,04,11,00,38,4.90
2021,04,11,00,39,4.80
2021,04,11,00,40,4.80
2021,04,11,00,41,4.80
2021,04,11,00,42,4.80
2021,04,11,00,43,4.80
2021,04,11,00,44,4.80
2021,04,11,00,45,4.80
2021,04,11,00,46,4.80
2021,04,11,00,47,4.80
2021,04,11,00,48,4.80
2021,04,11,00,49,4.80
2021,04,11,00,50,4.80
2021,04,11,00,51,4.70
2021,04,11,00,52,4.70
2021,04,11,00,53,4.70
2021,04,11,00,54,4.70
2021,04,11,00,55,4.70
2021,04,11,00,56,4.70
2021,04,11,00,57,4.60
2021,04,11,00,58,4.60
2021,04,11,00,59,4.60
2021,04,11,01,00,4.60
2021,04,11,01,01,4.60
2021,04,11,01,02,4.60
2021,04,11,01,03,4.60
2021,04,11,01,04,4.60
2021,04,11,01,05,4.60
2021,04,11,01,06,4.50
2021,04,11,01,07,4.50
2021,04,11,01,08,4.50
2021,04,11,01,09,4.50
2021,04,11,01,10,4.40
2021,04,11,01,11,4.40
2021,04,11,01,12,4.30
2021,04,11,01,13,4.30
2021,04,11,01,14,4.30
2021,04,11,01,15,4.30
2021,04,11,01,16,4.30
2021,04,11,01,17,4.20
2021,04,11,01,18,4.20
2021,04,11,01,19,4.20
2021,04,11,01,20,4.20
2021,04,11,01,21,4.10
2021,04,11,01,22,4.10
2021,04,11,01,23,4.10
2021,04,11,01,24,4.10
2021,04,11,01,25,4.10
2021,04,11,01,26,4.10
2021,04,11,01,27,4.10
2021,04,11,01,28,4.10
2021,04,11,01,29,4.20
2021,04,11,01,30,4.20
2021,04,11,01,31,4.20
2021,04,11,01,32,4.20
2021,04,11,01,33,4.20
2021,04,11,01,34,4.20
2021,04,11,01,35,4.20
2021,04,11,01,36,4.20
2021,04,11,01,37,4.20
2021,04,11,01,38,4.20
2021,04,11,01,39,4.10
2021,04,11,01,40,4.10
2021,04,11,01,41,4.10
2021,04,11,01,42,4.10
2021,04,11,01,43,4.10
2021,04,11,01,44,4.10
2021,04,11,01,45,4.10
2021,04,11,01,46,4.00
2021,04,11,01,47,4.00
2021,04,11,01,48,4.00
2021,04,11,01,49,4.00
2021,04,11,01,50,3.90
2021,04,11,01,51,3.90
2021,04,11,01,52,3.90
2021,04,11,01,53,3.80
2021,04,11,01,54,3.80
2021,04,11,01,55,3.80
2021,04,11,01,56,3.80
2021,04,11,01,57,3.70
2021,04,11,01,58,3.70
2021,04,11,01,59,3.70
2021,04,11,02,00,3.70
2021,04,11,02,01,3.70
2021,04,11,02,02,3.60
2021,04,11,02,03,3.60
2021,04,11,02,04,3.60
2021,04,11,02,05,3.60
2021,04,11,02,06,3.50
2021,04,11,02,07,3.50
2021,04,11,02,08,3.50
2021,04,11,02,09,3.50
2021,04,11,02,10,3.40
2021,04,11,02,11,3.40
2021,04,11,02,12,3.40
2021,04,11,02,13,3.40
2021,04,11,02,14,3.40
2021,04,11,02,15,3.40
2021,04,11,02,16,3.40
2021,04,11,02,17,3.40
2021,04,11,02,18,3.40
2021,04,11,02,19,3.30
2021,04,11,02,20,3.30
2021,04,11,02,21,3.30
2021,04,11,02,22,3.30
2021,04,11,02,23,3.30
2021,04,11,02,24,3.30
2021,04,11,02,25,3.30
2021,04,11,02,26,3.30
2021,04,11,02,27,3.30
2021,04,11,02,28,3.30
2021,04,11,02,29,3.20
2021,04,11,02,30,3.20
2021,04,11,02,31,3.20
2021,04,11,02,32,3.20
2021,04,11,02,33,3.20
2021,04,11,02,34,3.20
2021,04,11,02,35,3.10
2021,04,11,02,36,3.10
2021,04,11,02,37,3.10
2021,04,11,02,38,3.10
2021,04,11,02,39,3.10
2021,04,11,02,40,3.10
2021,04,11,02,41,3.10
2021,04,11,02,42,3.10
2021,04,11,02,43,3.10
2021,04,11,02,44,3.00
2021,04,11,02,45,3.00
2021,04,11,02,46,3.00
2021,04,11,02,47,3.00
2021,04,11,02,48,3.00
2021,04,11,02,49,2.90
2021,04,11,02,50,2.90
2021,04,11,02,51,2.90
2021,04,11,02,52,2.90
2021,04,11,02,53,2.90
2021,04,11,02,54,2.80
2021,04,11,02,55,2.80
2021,04,11,02,56,2.80
2021,04,11,02,57,2.80
2021,04,11,02,58,2.80
2021,04,11,02,59,2.70
2021,04,11,03,00,2.70
2021,04,11,03,01,2.70
2021,04,11,03,02,2.70
2021,04,11,03,03,2.70
2021,04,11,03,04,2.70
2021,04,11,03,05,2.70
2021,04,11,03,06,2.60
2021,04,11,03,07,2.60
2021,04,11,03,08,2.50
2021,04,11,03,09,2.40
2021,04,11,03,10,2.40
2021,04,11,03,11,2.30
2021,04,11,03,12,2.30
2021,04,11,03,13,2.30
2021,04,11,03,14,2.30
2021,04,11,03,15,2.30
2021,04,11,03,16,2.30
2021,04,11,03,17,2.30
2021,04,11,03,18,2.30
2021,04,11,03,19,2.30
2021,04,11,03,20,2.30
2021,04,11,03,21,2.40
2021,04,11,03,22,2.40
2021,04,11,03,23,2.40
2021,04,11,03,24,2.40
2021,04,11,03,25,2.40
2021,04,11,03,26,2.50
2021,04,11,03,27,2.50
2021,04,11,03,28,2.50
2021,04,11,03,29,2.50
2021,04,11,03,30,2.50
2021,04,11,03,31,2.40
2021,04,11,03,32,2.50
2021,04,11,03,33,2.40
2021,04,11,03,34,2.40
2021,04,11,03,35,2.40
2021,04,11,03,36,2.40
2021,04,11,03,37,2.40
2021,04,11,03,38,2.40
2021,04,11,03,39,2.40
2021,04,11,03,40,2.40
2021,04,11,03,41,2.40
2021,04,11,03,42,2.40
2021,04,11,03,43,2.40
2021,04,11,03,44,2.40
2021,04,11,03,45,2.40
2021,04,11,03,46,2.40
2021,04,11,03,47,2.40
2021,04,11,03,48,2.40
2021,04,11,03,49,2.40
2021,04,11,03,50,2.40
2021,04,11,03,51,2.40
2021,04,11,03,52,2.40
2021,04,11,03,53,2.40
2021,04,11,03,54,2.40
2021,04,11,03,55,2.40
2021,04,11,03,56,2.30
2021,04,11,03,57,2.30
2021,04,11,03,58,2.30
2021,04,11,03,59,2.30
2021,04,11,04,00,2.30
2021,04,11,04,01,2.30
2021,04,11,04,02,2.30
2021,04,11,04,03,2.30
2021,04,11,04,04,2.30
2021,04,11,04,05,2.30
2021,04,11,04,06,2.20
2021,04,11,04,07,2.30
2021,04,11,04,08,2.30
2021,04,11,04,09,2.20
2021,04,11,04,10,2.20
2021,04,11,04,11,2.10
2021,04,11,04,12,2.00
2021,04,11,04,13,1.90
2021,04,11,04,14,1.90
2021,04,11,04,15,1.80
2021,04,11,04,16,1.80
2021,04,11,04,17,1.70
2021,04,11,04,18,1.70
2021,04,11,04,19,1.70
2021,04,11,04,20,1.60
2021,04,11,04,21,1.60
2021,04,11,04,22,1.60
2021,04,11,04,23,1.50
2021,04,11,04,24,1.50
2021,04,11,04,25,1.50
2021,04,11,04,26,1.50
2021,04,11,04,27,1.50
2021,04,11,04,28,1.50
2021,04,11,04,29,1.50
2021,04,11,04,30,1.60
2021,04,11,04,31,1.70
2021,04,11,04,32,1.70
2021,04,11,04,33,1.80
2021,04,11,04,34,1.80
2021,04,11,04,35,1.90
2021,04,11,04,36,1.90
2021,04,11,04,37,1.90
2021,04,11,04,38,1.90
2021,04,11,04,39,1.80
2021,04,11,04,40,1.80
2021,04,11,04,41,1.80
2021,04,11,04,42,1.80
2021,04,11,04,43,1.70
2021,04,11,04,44,1.70
2021,04,11,04,45,1.70
2021,04,11,04,46,1.70
2021,04,11,04,47,1.70
2021,04,11,04,48,1.70
2021,04,11,04,49,1.70
2021,04,11,04,50,1.70
2021,04,11,04,51,1.70
2021,04,11,04,52,1.70
2021,04,11,04,53,1.70
2021,04,11,04,54,1.80
2021,04,11,04,55,1.80
2021,04,11,04,56,1.80
2021,04,11,04,57,1.80
2021,04,11,04,58,1.90
2021,04,11,04,59,1.90
2021,04,11,05,00,1.90
2021,04,11,05,01,1.90
2021,04,11,05,02,1.90
2021,04,11,05,03,1.90
2021,04,11,05,04,1.90
2021,04,11,05,05,1.90
2021,04,11,05,06,1.90
2021,04,11,05,07,1.90
2021,04,11,05,08,1.90
2021,04,11,05,09,1.90
2021,04,11,05,10,1.90
2021,04,11,05,11,1.90
2021,04,11,05,12,1.90
2021,04,11,05,13,1.90
2021,04,11,05,14,1.90
2021,04,11,05,15,1.90
2021,04,11,05,16,1.90
2021,04,11,05,17,1.90
2021,04,11,05,18,1.90
2021,04,11,05,19,1.90
2021,04,11,05,20,1.90
2021,04,11,05,21,1.90
2021,04,11,05,22,1.90
2021,04,11,05,23,1.90
2021,04,11,05,24,1.90
2021,04,11,05,25,1.90
2021,04,11,05,26,1.90
2021,04,11,05,27,1.90
2021,04,11,05,28,1.90
2021,04,11,05,29,1.80
2021,04,11,05,30,1.80
2021,04,11,05,31,1.80
2021,04,11,05,32,1.70
2021,04,11,05,33,1.70
2021,04,11,05,34,1.70
2021,04,11,05,35,1.60
2021,04,11,05,36,1.60
2021,04,11,05,37,1.60
2021,04,11,05,38,1.60
2021,04,11,05,39,1.60
2021,04,11,05,40,1.60
2021,04,11,05,41,1.60
2021,04,11,05,42,1.60
2021,04,11,05,43,1.60
2021,04,11,05,44,1.60
2021,04,11,05,45,1.70
2021,04,11,05,46,1.70
2021,04,11,05,47,1.70
2021,04,11,05,48,1.70
2021,04,11,05,49,1.70
2021,04,11,05,50,1.70
2021,04,11,05,51,1.70
2021,04,11,05,52,1.70
2021,04,11,05,53,1.60
2021,04,11,05,54,1.60
2021,04,11,05,55,1.60
2021,04,11,05,56,1.50
2021,04,11,05,57,1.50
2021,04,11,05,58,1.40
2021,04,11,05,59,1.40
2021,04,11,06,00,1.40
2021,04,11,06,01,1.40
2021,04,11,06,02,1.40
2021,04,11,06,03,1.40
2021,04,11,06,04,1.50
2021,04,11,06,05,1.50
2021,04,11,06,06,1.60
2021,04,11,06,07,1.60
2021,04,11,06,08,1.70
2021,04,11,06,09,1.70
2021,04,11,06,10,1.80
2021,04,11,06,11,1.80
2021,04,11,06,12,1.90
2021,04,11,06,13,2.00
2021,04,11,06,14,2.10
2021,04,11,06,15,2.10
2021,04,11,06,16,2.20
2021,04,11,06,17,2.30
2021,04,11,06,18,2.30
2021,04,11,06,19,2.40
2021,04,11,06,20,2.50
2021,04,11,06,21,2.60
2021,04,11,06,22,2.60
2021,04,11,06,23,2.70
2021,04,11,06,24,2.80
2021,04,11,06,25,2.80
2021,04,11,06,26,2.90
2021,04,11,06,27,2.90
2021,04,11,06,28,2.90
2021,04,11,06,29,2.90
2021,04,11,06,30,2.90
2021,04,11,06,31,2.80
2021,04,11,06,32,2.70
2021,04,11,06,33,2.70
2021,04,11,06,34,2.60
2021,04,11,06,35,2.50
2021,04,11,06,36,2.40
2021,04,11,06,37,2.40
2021,04,11,06,38,2.30
2021,04,11,06,39,2.20
2021,04,11,06,40,2.20
2021,04,11,06,41,2.10
2021,04,11,06,42,2.10
2021,04,11,06,43,2.00
2021,04,11,06,44,2.00
2021,04,11,06,45,2.00
2021,04,11,06,46,2.00
2021,04,11,06,47,1.90
2021,04,11,06,48,1.90
2021,04,11,06,49,1.90
2021,04,11,06,50,1.90
2021,04,11,06,51,1.90
2021,04,11,06,52,1.90
2021,04,11,06,53,1.90
2021,04,11,06,54,1.90
2021,04,11,06,55,1.90
2021,04,11,06,56,1.90
2021,04,11,06,57,2.00
2021,04,11,06,58,2.10
2021,04,11,06,59,2.20
2021,04,11,07,00,2.30
2021,04,11,07,01,2.30
2021,04,11,07,02,2.30
2021,04,11,07,03,2.30
2021,04,11,07,04,2.30
2021,04,11,07,05,2.30
2021,04,11,07,06,2.30
2021,04,11,07,07,2.40
2021,04,11,07,08,2.40
2021,04,11,07,09,2.40
2021,04,11,07,10,2.40
2021,04,11,07,11,2.50
2021,04,11,07,12,2.50
2021,04,11,07,13,2.50
2021,04,11,07,14,2.60
2021,04,11,07,15,2.60
2021,04,11,07,16,2.70
2021,04,11,07,17,2.70
2021,04,11,07,18,2.80
2021,04,11,07,19,2.90
2021,04,11,07,20,3.00
2021,04,11,07,21,3.20
2021,04,11,07,22,3.30
2021,04,11,07,23,3.40
2021,04,11,07,24,3.40
2021,04,11,07,25,3.50
2021,04,11,07,26,3.60
2021,04,11,07,27,3.70
2021,04,11,07,28,3.80
2021,04,11,07,29,3.90
2021,04,11,07,30,4.00
2021,04,11,07,31,4.10
2021,04,11,07,32,4.20
2021,04,11,07,33,4.20
2021,04,11,07,34,4.30
2021,04,11,07,35,4.40
2021,04,11,07,36,4.40
2021,04,11,07,37,4.50
2021,04,11,07,38,4.50
2021,04,11,07,39,4.60
2021,04,11,07,40,4.60
2021,04,11,07,41,4.70
2021,04,11,07,42,4.70
2021,04,11,07,43,4.70
2021,04,11,07,44,4.70
2021,04,11,07,45,4.70
2021,04,11,07,46,4.80
2021,04,11,07,47,4.80
2021,04,11,07,48,4.80
2021,04,11,07,49,4.80
2021,04,11,07,50,4.80
2021,04,11,07,51,4.90
2021,04,11,07,52,4.90
2021,04,11,07,53,4.90
2021,04,11,07,54,4.90
2021,04,11,07,55,5.00
2021,04,11,07,56,5.00
2021,04,11,07,57,5.10
2021,04,11,07,58,5.10
2021,04,11,07,59,5.10
2021,04,11,08,00,5.10
2021,04,11,08,01,5.10
2021,04,11,08,02,5.10
2021,04,11,08,03,5.10
2021,04,11,08,04,5.10
2021,04,11,08,05,5.20
2021,04,11,08,06,5.20
2021,04,11,08,07,5.20
2021,04,11,08,08,5.20
2021,04,11,08,09,5.20
2021,04,11,08,10,5.30
2021,04,11,08,11,5.30
2021,04,11,08,12,5.30
2021,04,11,08,13,5.40
2021,04,11,08,14,5.40
2021,04,11,08,15,5.50
2021,04,11,08,16,5.60
2021,04,11,08,17,5.60
2021,04,11,08,18,5.70
2021,04,11,08,19,5.80
2021,04,11,08,20,5.80
2021,04,11,08,21,5.90
2021,04,11,08,22,6.00
2021,04,11,08,23,6.10
2021,04,11,08,24,6.20
2021,04,11,08,25,6.30
2021,04,11,08,26,6.30
2021,04,11,08,27,6.30
2021,04,11,08,28,6.40
2021,04,11,08,29,6.40
2021,04,11,08,30,6.50
2021,04,11,08,31,6.50
2021,04,11,08,32,6.50
2021,04,11,08,33,6.40
2021,04,11,08,34,6.40
2021,04,11,08,35,6.40
2021,04,11,08,36,6.50
2021,04,11,08,37,6.50
2021,04,11,08,38,6.60
2021,04,11,08,39,6.70
2021,04,11,08,40,6.70
2021,04,11,08,41,6.80
2021,04,11,08,42,6.90
2021,04,11,08,43,7.00
2021,04,11,08,44,7.00
2021,04,11,08,45,7.00
2021,04,11,08,46,7.10
2021,04,11,08,47,7.10
2021,04,11,08,48,7.10
2021,04,11,08,49,7.10
2021,04,11,08,50,7.10
2021,04,11,08,51,7.10
2021,04,11,08,52,7.10
2021,04,11,08,53,7.10
2021,04,11,08,54,7.10
2021,04,11,08,55,7.10
2021,04,11,08,56,7.00
2021,04,11,08,57,7.00
2021,04,11,08,58,7.00
2021,04,11,08,59,7.00
2021,04,11,09,00,7.00
2021,04,11,09,01,7.00
2021,04,11,09,02,7.00
2021,04,11,09,03,7.00
2021,04,11,09,04,7.00
2021,04,11,09,05,7.00
2021,04,11,09,06,7.00
2021,04,11,09,07,7.10
2021,04,11,09,08,7.10
2021,04,11,09,09,7.10
2021,04,11,09,10,7.10
2021,04,11,09,11,7.10
2021,04,11,09,12,7.10
2021,04,11,09,13,7.10
2021,04,11,09,14,7.10
2021,04,11,09,15,7.10
2021,04,11,09,16,7.10
2021,04,11,09,17,7.10
2021,04,11,09,18,7.10
2021,04,11,09,19,7.00
2021,04,11,09,20,7.00
2021,04,11,09,21,6.90
2021,04,11,09,22,6.90
2021,04,11,09,23,6.90
2021,04,11,09,24,6.90
2021,04,11,09,25,6.90
2021,04,11,09,26,7.00
2021,04,11,09,27,7.00
2021,04,11,09,28,7.10
2021,04,11,09,29,7.10
2021,04,11,09,30,7.10
2021,04,11,09,31,7.10
2021,04,11,09,32,7.10
2021,04,11,09,33,7.20
2021,04,11,09,34,7.20
2021,04,11,09,35,7.20
2021,04,11,09,36,7.30
2021,04,11,09,37,7.30
2021,04,11,09,38,7.30
2021,04,11,09,39,7.30
2021,04,11,09,40,7.30
2021,04,11,09,41,7.30
2021,04,11,09,42,7.40
2021,04,11,09,43,7.30
2021,04,11,09,44,7.30
2021,04,11,09,45,7.30
2021,04,11,09,46,7.30
2021,04,11,09,47,7.30
2021,04,11,09,48,7.20
2021,04,11,09,49,7.20
2021,04,11,09,50,7.20
2021,04,11,09,51,7.20
2021,04,11,09,52,7.20
2021,04,11,09,53,7.20
2021,04,11,09,54,7.10
2021,04,11,09,55,7.10
2021,04,11,09,56,7.10
2021,04,11,09,57,7.10
2021,04,11,09,58,7.20
2021,04,11,09,59,7.30
2021,04,11,10,00,7.30
2021,04,11,10,01,7.30
2021,04,11,10,02,7.30
2021,04,11,10,03,7.40
2021,04,11,10,04,7.40
2021,04,11,10,05,7.40
2021,04,11,10,06,7.40
2021,04,11,10,07,7.30
2021,04,11,10,08,7.30
2021,04,11,10,09,7.20
2021,04,11,10,10,7.20
2021,04,11,10,11,7.10
2021,04,11,10,12,7.10
2021,04,11,10,13,7.00
2021,04,11,10,14,7.00
2021,04,11,10,15,6.90
2021,04,11,10,16,6.90
2021,04,11,10,17,6.90
2021,04,11,10,18,6.90
2021,04,11,10,19,6.90
2021,04,11,10,20,6.90
2021,04,11,10,21,6.90
2021,04,11,10,22,7.00
2021,04,11,10,23,7.00
2021,04,11,10,24,7.00
2021,04,11,10,25,7.00
2021,04,11,10,26,7.00
2021,04,11,10,27,7.00
2021,04,11,10,28,6.90
2021,04,11,10,29,6.90
2021,04,11,10,30,6.90
2021,04,11,10,31,6.90
2021,04,11,10,32,6.90
2021,04,11,10,33,7.00
2021,04,11,10,34,7.00
2021,04,11,10,35,7.00
2021,04,11,10,36,7.00
2021,04,11,10,37,7.00
2021,04,11,10,38,7.00
2021,04,11,10,39,7.10
2021,04,11,10,40,7.10
2021,04,11,10,41,7.10
2021,04,11,10,42,7.10
2021,04,11,10,43,7.10
2021,04,11,10,44,7.10
2021,04,11,10,45,7.10
2021,04,11,10,46,7.20
2021,04,11,10,47,7.20
2021,04,11,10,48,7.20
2021,04,11,10,49,7.30
2021,04,11,10,50,7.30
2021,04,11,10,51,7.30
2021,04,11,10,52,7.40
2021,04,11,10,53,7.40
2021,04,11,10,54,7.40
2021,04,11,10,55,7.40
2021,04,11,10,56,7.40
2021,04,11,10,57,7.40
2021,04,11,10,58,7.30
2021,04,11,10,59,7.30
2021,04,11,11,00,7.30
2021,04,11,11,01,7.30
2021,04,11,11,02,7.40
2021,04,11,11,03,7.40
2021,04,11,11,04,7.50
2021,04,11,11,05,7.50
2021,04,11,11,06,7.60
2021,04,11,11,07,7.70
2021,04,11,11,08,7.80
2021,04,11,11,09,7.80
2021,04,11,11,10,7.90
2021,04,11,11,11,7.90
2021,04,11,11,12,8.00
2021,04,11,11,13,8.00
2021,04,11,11,14,7.90
2021,04,11,11,15,7.90
2021,04,11,11,16,7.90
2021,04,11,11,17,7.90
2021,04,11,11,18,7.90
2021,04,11,11,19,8.00
2021,04,11,11,20,7.90
2021,04,11,11,21,7.90
2021,04,11,11,22,7.90
2021,04,11,11,23,7.80
2021,04,11,11,24,7.80
2021,04,11,11,25,7.70
2021,04,11,11,26,7.70
2021,04,11,11,27,7.70
2021,04,11,11,28,7.70
2021,04,11,11,29,7.70
2021,04,11,11,30,7.70
2021,04,11,11,31,7.60
2021,04,11,11,32,7.60
2021,04,11,11,33,7.60
2021,04,11,11,34,7.60
2021,04,11,11,35,7.70
2021,04,11,11,36,7.70
2021,04,11,11,37,7.70
2021,04,11,11,38,7.70
2021,04,11,11,39,7.60
2021,04,11,11,40,7.60
2021,04,11,11,41,7.60
2021,04,11,11,42,7.70
2021,04,11,11,43,7.70
2021,04,11,11,44,7.70
2021,04,11,11,45,7.70
2021,04,11,11,46,7.60
2021,04,11,11,47,7.60
2021,04,11,11,48,7.60
2021,04,11,11,49,7.70
2021,04,11,11,50,7.70
2021,04,11,11,51,7.70
2021,04,11,11,52,7.70
2021,04,11,11,53,7.70
2021,04,11,11,54,7.70
2021,04,11,11,55,7.70
2021,04,11,11,56,7.70
2021,04,11,11,57,7.70
2021,04,11,11,58,7.80
2021,04,11,11,59,7.80
2021,04,11,12,00,7.80
2021,04,11,12,01,7.70
2021,04,11,12,02,7.80
2021,04,11,12,03,7.80
2021,04,11,12,04,7.80
2021,04,11,12,05,7.80
2021,04,11,12,06,7.80
2021,04,11,12,07,7.80
2021,04,11,12,08,7.80
2021,04,11,12,09,7.80
2021,04,11,12,10,7.80
2021,04,11,12,11,7.80
2021,04,11,12,12,7.80
2021,04,11,12,13,7.80
2021,04,11,12,14,7.70
2021,04,11,12,15,7.80
2021,04,11,12,16,7.80
2021,04,11,12,17,7.80
2021,04,11,12,18,7.70
2021,04,11,12,19,7.70
2021,04,11,12,20,7.80
2021,04,11,12,21,7.80
2021,04,11,12,22,7.80
2021,04,11,12,23,7.80
2021,04,11,12,24,7.80
2021,04,11,12,25,7.80
2021,04,11,12,26,7.70
2021,04,11,12,27,7.70
2021,04,11,12,28,7.70
2021,04,11,12,29,7.70
2021,04,11,12,30,7.70
2021,04,11,12,31,7.70
2021,04,11,12,32,7.70
2021,04,11,12,33,7.70
2021,04,11,12,34,7.80
2021,04,11,12,35,7.80
2021,04,11,12,36,7.80
2021,04,11,12,37,7.80
2021,04,11,12,38,7.80
2021,04,11,12,39,7.80
2021,04,11,12,40,7.80
2021,04,11,12,41,7.80
2021,04,11,12,42,7.80
2021,04,11,12,43,7.80
2021,04,11,12,44,7.80
2021,04,11,12,45,7.80
2021,04,11,12,46,7.80
2021,04,11,12,47,7.70
2021,04,11,12,48,7.70
2021,04,11,12,49,7.60
2021,04,11,12,50,7.60
2021,04,11,12,51,7.70
2021,04,11,12,52,7.70
2021,04,11,12,53,7.70
2021,04,11,12,54,7.70
2021,04,11,12,55,7.70
2021,04,11,12,56,7.70
2021,04,11,12,57,7.70
2021,04,11,12,58,7.70
2021,04,11,12,59,7.70
2021,04,11,13,00,7.80
2021,04,11,13,01,7.80
2021,04,11,13,02,7.80
2021,04,11,13,03,7.80
2021,04,11,13,04,7.80
2021,04,11,13,05,7.80
2021,04,11,13,06,7.80
2021,04,11,13,07,7.80
2021,04,11,13,08,7.80
2021,04,11,13,09,7.90
2021,04,11,13,10,7.90
2021,04,11,13,11,7.90
2021,04,11,13,12,7.90
2021,04,11,13,13,7.90
2021,04,11,13,14,7.90
2021,04,11,13,15,8.00
2021,04,11,13,16,8.00
2021,04,11,13,17,8.00
2021,04,11,13,18,8.00
2021,04,11,13,19,8.10
2021,04,11,13,20,8.10
2021,04,11,13,21,8.10
2021,04,11,13,22,8.10
2021,04,11,13,23,8.10
2021,04,11,13,24,8.00
2021,04,11,13,25,8.00
2021,04,11,13,26,8.00
2021,04,11,13,27,8.00
2021,04,11,13,28,8.00
2021,04,11,13,29,8.00
2021,04,11,13,30,8.10
2021,04,11,13,31,8.10
2021,04,11,13,32,8.10
2021,04,11,13,33,8.10
2021,04,11,13,34,8.10
2021,04,11,13,35,8.10
2021,04,11,13,36,8.10
2021,04,11,13,37,8.20
2021,04,11,13,38,8.20
2021,04,11,13,39,8.10
2021,04,11,13,40,8.20
2021,04,11,13,41,8.20
2021,04,11,13,42,8.20
2021,04,11,13,43,8.20
2021,04,11,13,44,8.20
2021,04,11,13,45,8.20
2021,04,11,13,46,8.20
2021,04,11,13,47,8.20
2021,04,11,13,48,8.20
2021,04,11,13,49,8.20
2021,04,11,13,50,8.20
2021,04,11,13,51,8.20
2021,04,11,13,52,8.20
2021,04,11,13,53,8.20
2021,04,11,13,54,8.30
2021,04,11,13,55,8.30
2021,04,11,13,56,8.30
2021,04,11,13,57,8.30
2021,04,11,13,58,8.30
2021,04,11,13,59,8.30
2021,04,11,14,00,8.40
2021,04,11,14,01,8.40
2021,04,11,14,02,8.40
2021,04,11,14,03,8.40
2021,04,11,14,04,8.50
2021,04,11,14,05,8.50
2021,04,11,14,06,8.40
2021,04,11,14,07,8.40
2021,04,11,14,08,8.40
2021,04,11,14,09,8.40
2021,04,11,14,10,8.40
2021,04,11,14,11,8.40
2021,04,11,14,12,8.40
2021,04,11,14,13,8.40
2021,04,11,14,14,8.40
2021,04,11,14,15,8.40
2021,04,11,14,16,8.50
2021,04,11,14,17,8.50
2021,04,11,14,18,8.50
2021,04,11,14,19,8.50
2021,04,11,14,20,8.60
2021,04,11,14,21,8.60
2021,04,11,14,22,8.60
2021,04,11,14,23,8.70
2021,04,11,14,24,8.70
2021,04,11,14,25,8.70
2021,04,11,14,26,8.70
2021,04,11,14,27,8.70
2021,04,11,14,28,8.70
2021,04,11,14,29,8.70
2021,04,11,14,30,8.70
2021,04,11,14,31,8.60
2021,04,11,14,32,8.50
2021,04,11,14,33,8.40
2021,04,11,14,34,8.40
2021,04,11,14,35,8.40
2021,04,11,14,36,8.40
2021,04,11,14,37,8.40
2021,04,11,14,38,8.40
2021,04,11,14,39,8.50
2021,04,11,14,40,8.50
2021,04,11,14,41,8.50
2021,04,11,14,42,8.60
2021,04,11,14,43,8.60
2021,04,11,14,44,8.60
2021,04,11,14,45,8.70
2021,04,11,14,46,8.70
2021,04,11,14,47,8.70
2021,04,11,14,48,8.60
2021,04,11,14,49,8.50
2021,04,11,14,50,8.40
2021,04,11,14,51,8.40
2021,04,11,14,52,8.40
2021,04,11,14,53,8.40
2021,04,11,14,54,8.40
2021,04,11,14,55,8.40
2021,04,11,14,56,8.40
2021,04,11,14,57,8.50
2021,04,11,14,58,8.50
2021,04,11,14,59,8.60
2021,04,11,15,00,8.70
2021,04,11,15,01,8.70
2021,04,11,15,02,8.80
2021,04,11,15,03,8.80
2021,04,11,15,04,8.90
2021,04,11,15,05,8.90
2021,04,11,15,06,9.00
2021,04,11,15,07,9.00
2021,04,11,15,08,9.00
2021,04,11,15,09,8.90
2021,04,11,15,10,8.90
2021,04,11,15,11,8.90
2021,04,11,15,12,8.90
2021,04,11,15,13,8.90
2021,04,11,15,14,9.00
2021,04,11,15,15,9.00
2021,04,11,15,16,9.00
2021,04,11,15,17,8.90
2021,04,11,15,18,8.80
2021,04,11,15,19,8.70
2021,04,11,15,20,8.70
2021,04,11,15,21,8.70
2021,04,11,15,22,8.80
2021,04,11,15,23,8.80
2021,04,11,15,24,8.80
2021,04,11,15,25,8.80
2021,04,11,15,26,8.80
2021,04,11,15,27,8.80
2021,04,11,15,28,8.80
2021,04,11,15,29,8.90
2021,04,11,15,30,8.90
2021,04,11,15,31,9.00
2021,04,11,15,32,9.00
2021,04,11,15,33,9.00
2021,04,11,15,34,9.10
2021,04,11,15,35,9.10
2021,04,11,15,36,9.10
2021,04,11,15,37,9.20
2021,04,11,15,38,9.20
2021,04,11,15,39,9.20
2021,04,11,15,40,9.20
2021,04,11,15,41,9.20
2021,04,11,15,42,9.20
2021,04,11,15,43,9.20
2021,04,11,15,44,9.20
2021,04,11,15,45,9.20
2021,04,11,15,46,9.30
2021,04,11,15,47,9.30
2021,04,11,15,48,9.30
2021,04,11,15,49,9.30
2021,04,11,15,50,9.40
2021,04,11,15,51,9.40
2021,04,11,15,52,9.40
2021,04,11,15,53,9.40
2021,04,11,15,54,9.40
2021,04,11,15,55,9.40
2021,04,11,15,56,9.40
2021,04,11,15,57,9.40
2021,04,11,15,58,9.40
2021,04,11,15,59,9.40
2021,04,11,16,00,9.40
2021,04,11,16,01,9.40
2021,04,11,16,02,9.40
2021,04,11,16,03,9.40
2021,04,11,16,04,9.40
2021,04,11,16,05,9.40
2021,04,11,16,06,9.40
2021,04,11,16,07,9.40
2021,04,11,16,08,9.50
2021,04,11,16,09,9.50
2021,04,11,16,10,9.50
2021,04,11,16,11,9.60
2021,04,11,16,12,9.60
2021,04,11,16,13,9.60
2021,04,11,16,14,9.60
2021,04,11,16,15,9.60
2021,04,11,16,16,9.60
2021,04,11,16,17,9.60
2021,04,11,16,18,9.70
2021,04,11,16,19,9.70
2021,04,11,16,20,9.80
2021,04,11,16,21,9.80
2021,04,11,16,22,9.80
2021,04,11,16,23,9.80
2021,04,11,16,24,9.80
2021,04,11,16,25,9.80
2021,04,11,16,26,9.80
2021,04,11,16,27,9.80
2021,04,11,16,28,9.90
2021,04,11,16,29,9.90
2021,04,11,16,30,9.90
2021,04,11,16,31,10.00
2021,04,11,16,32,10.10
2021,04,11,16,33,10.20
2021,04,11,16,34,10.20
2021,04,11,16,35,10.20
2021,04,11,16,36,10.30
2021,04,11,16,37,10.30
2021,04,11,16,38,10.30
2021,04,11,16,39,10.40
2021,04,11,16,40,10.40
2021,04,11,16,41,10.50
2021,04,11,16,42,10.50
2021,04,11,16,43,10.50
2021,04,11,16,44,10.60
2021,04,11,16,45,10.60
2021,04,11,16,46,10.70
2021,04,11,16,47,10.70
2021,04,11,16,48,10.70
2021,04,11,16,49,10.70
2021,04,11,16,50,10.70
2021,04,11,16,51,10.80
2021,04,11,16,52,10.80
2021,04,11,16,53,10.80
2021,04,11,16,54,10.90
2021,04,11,16,55,10.90
2021,04,11,16,56,10.90
2021,04,11,16,57,10.90
2021,04,11,16,58,10.90
2021,04,11,16,59,10.90
2021,04,11,17,00,10.80
2021,04,11,17,01,10.80
2021,04,11,17,02,10.70
2021,04,11,17,03,10.60
2021,04,11,17,04,10.60
2021,04,11,17,05,10.60
2021,04,11,17,06,10.60
2021,04,11,17,07,10.60
2021,04,11,17,08,10.60
2021,04,11,17,09,10.60
2021,04,11,17,10,10.60
2021,04,11,17,11,10.60
2021,04,11,17,12,10.70
2021,04,11,17,13,10.70
2021,04,11,17,14,10.70
2021,04,11,17,15,10.80
2021,04,11,17,16,10.80
2021,04,11,17,17,10.90
2021,04,11,17,18,10.90
2021,04,11,17,19,11.00
2021,04,11,17,20,11.00
2021,04,11,17,21,11.10
2021,04,11,17,22,11.10
2021,04,11,17,23,11.10
2021,04,11,17,24,11.00
2021,04,11,17,25,11.00
2021,04,11,17,26,11.00
2021,04,11,17,27,11.00
2021,04,11,17,28,11.00
2021,04,11,17,29,11.00
2021,04,11,17,30,11.00
2021,04,11,17,31,10.90
2021,04,11,17,32,10.90
2021,04,11,17,33,10.90
2021,04,11,17,34,10.90
2021,04,11,17,35,10.90
2021,04,11,17,36,10.90
2021,04,11,17,37,10.80
2021,04,11,17,38,10.80
2021,04,11,17,39,10.80
2021,04,11,17,40,10.90
2021,04,11,17,41,10.90
2021,04,11,17,42,10.90
2021,04,11,17,43,11.00
2021,04,11,17,44,11.10
2021,04,11,17,45,11.10
2021,04,11,17,46,11.10
2021,04,11,17,47,11.20
2021,04,11,17,48,11.20
2021,04,11,17,49,11.10
2021,04,11,17,50,11.00
2021,04,11,17,51,10.90
2021,04,11,17,52,10.80
2021,04,11,17,53,10.70
2021,04,11,17,54,10.50
2021,04,11,17,55,10.40
2021,04,11,17,56,10.30
2021,04,11,17,57,10.30
2021,04,11,17,58,10.30
2021,04,11,17,59,10.30
2021,04,11,18,00,10.30
2021,04,11,18,01,10.30
2021,04,11,18,02,10.30